TimeEST,TemperatureF,Dew PointF,Humidity,Sea Level PressureIn,VisibilityMPH,Wind Direction,Wind SpeedMPH,Gust SpeedMPH,PrecipitationIn,Events,Conditions,WindDirDegrees,DateUTC
12:53 AM,33.1,17.1,52,29.85,10.0,WNW,21.9,27.6,N/A,,Partly Cloudy,290,2013-02-20 05:53:00
1:53 AM,32.0,15.1,50,29.86,10.0,WNW,25.3,33.4,N/A,,Overcast,290,2013-02-20 06:53:00
2:53 AM,30.0,12.9,49,29.88,10.0,West,15.0,26.5,N/A,,Mostly Cloudy,280,2013-02-20 07:53:00
3:53 AM,30.0,14.0,51,29.89,10.0,West,8.1,-,N/A,,Overcast,280,2013-02-20 08:53:00
4:53 AM,28.9,14.0,54,29.90,10.0,WNW,15.0,27.6,N/A,,Overcast,290,2013-02-20 09:53:00
5:53 AM,28.0,12.9,53,29.93,10.0,WNW,15.0,-,N/A,,Overcast,300,2013-02-20 10:53:00
7:53 AM,27.0,10.9,51,29.99,10.0,West,12.7,25.3,N/A,,Overcast,280,2013-02-20 12:53:00
8:53 AM,27.0,10.9,51,30.01,10.0,WNW,15.0,27.6,N/A,,Mostly Cloudy,300,2013-02-20 13:53:00
9:53 AM,26.1,10.9,53,30.01,10.0,NW,21.9,29.9,N/A,,Overcast,310,2013-02-20 14:53:00
11:53 AM,27.0,12.0,53,30.01,10.0,WNW,18.4,24.2,N/A,,Overcast,290,2013-02-20 16:53:00
12:53 PM,28.0,12.0,51,30.00,10.0,West,12.7,21.9,N/A,,Overcast,280,2013-02-20 17:53:00
1:53 PM,28.0,10.0,47,30.00,10.0,WNW,17.3,26.5,N/A,,Overcast,290,2013-02-20 18:53:00
3:53 PM,27.0,10.0,49,30.04,10.0,WNW,17.3,25.3,N/A,,Overcast,290,2013-02-20 20:53:00
4:53 PM,27.0,9.0,47,30.07,10.0,West,13.8,20.7,N/A,,Mostly Cloudy,280,2013-02-20 21:53:00
5:53 PM,26.1,9.0,49,30.09,10.0,West,11.5,-,N/A,,Overcast,280,2013-02-20 22:53:00
6:53 PM,25.0,8.1,49,30.10,10.0,WNW,13.8,19.6,N/A,,Scattered Clouds,290,2013-02-20 23:53:00
7:53 PM,24.1,8.1,51,30.11,10.0,WNW,12.7,-,N/A,,Clear,290,2013-02-21 00:53:00
8:53 PM,24.1,8.1,51,30.11,10.0,WNW,9.2,-,N/A,,Clear,290,2013-02-21 01:53:00
9:53 PM,23.0,9.0,55,30.12,10.0,West,11.5,-,N/A,,Clear,280,2013-02-21 02:53:00
11:53 PM,23.0,8.1,53,30.13,10.0,West,10.4,21.9,N/A,,Overcast,280,2013-02-21 04:53:00